Torna al catalogo

COSMOS 1247

AttivoNavigazioneHEO
NORAD 12303·PAYLOAD·🇷🇺 Russia

Lanciato Feb 19, 1981 da Plesetsk Cosmodrome

Loading…

Prossimi Passaggi (prossime 24 ore)

TLE

AggiornatoSource: Space-Track

Epoca: Sep 9, 2026, 13:46 UTC

1 12303U 81016A   26252.57379288  .00000080  00000-0  00000-0 0  9999
2 12303  69.3072 349.6926 6209726 336.3168   4.4896  2.02487979336886

Traccia COSMOS 1247 in tempo reale con AllMySat

Download on the App Store